| time (UTC) | temp F | wind direction | speed MPH | gust MPH | rain 1hr in | rain 24hr in | rain mn in | humidity % | barometer mb |
| 20260508191908 | 69 | 118 | 5.0 | 8.0 | 0.00 | 0.00 | 0.00 | 69 | 1014.0 |
| 20260508191405 | 69 | 87 | 2.0 | 8.0 | 0.00 | 0.00 | 0.00 | 68 | 1014.1 |
| 20260508190902 | 69 | 151 | 5.0 | 9.0 | 0.00 | 0.00 | 0.00 | 67 | 1014.1 |
| 20260508190359 | 70 | 135 | 3.0 | 11.0 | 0.00 | 0.00 | 0.00 | 65 | 1014.2 |
| 20260508185855 | 70 | 126 | 2.0 | 6.0 | 0.00 | 0.00 | 0.00 | 65 | 1014.3 |
| 20260508185353 | 70 | 118 | 5.0 | 11.0 | 0.00 | 0.00 | 0.00 | 64 | 1014.3 |
| 20260508184850 | 70 | 144 | 7.0 | 10.0 | 0.00 | 0.00 | 0.00 | 65 | 1014.3 |
| 20260508184347 | 70 | 55 | 4.0 | 11.0 | 0.00 | 0.00 | 0.00 | 66 | 1014.3 |
| 20260508183844 | 70 | 142 | 3.0 | 9.0 | 0.00 | 0.00 | 0.00 | 67 | 1014.2 |
| 20260508183340 | 71 | 111 | 2.0 | 10.0 | 0.00 | 0.00 | 0.00 | 64 | 1014.3 |
| 20260508182836 | 71 | 68 | 10.0 | 13.0 | 0.00 | 0.00 | 0.00 | 63 | 1014.4 |
| 20260508182333 | 71 | 137 | 9.0 | 11.0 | 0.00 | 0.00 | 0.00 | 64 | 1014.3 |
| 20260508181828 | 71 | 139 | 2.0 | 13.0 | 0.00 | 0.00 | 0.00 | 64 | 1014.4 |
| 20260508181326 | 71 | 77 | 5.0 | 9.0 | 0.00 | 0.00 | 0.00 | 64 | 1014.5 |
| 20260508180823 | 71 | 119 | 5.0 | 9.0 | 0.00 | 0.00 | 0.00 | 63 | 1014.5 |
| 20260508180319 | 71 | 106 | 5.0 | 13.0 | 0.00 | 0.00 | 0.00 | 63 | 1014.8 |
| 20260508175816 | 72 | 79 | 3.0 | 14.0 | 0.00 | 0.00 | 0.00 | 62 | 1014.5 |
| 20260508175312 | 72 | 118 | 8.0 | 11.0 | 0.00 | 0.00 | 0.00 | 63 | 1014.7 |
| 20260508174810 | 72 | 187 | 8.0 | 10.0 | 0.00 | 0.00 | 0.00 | 63 | 1014.6 |
| 20260508174307 | 72 | 80 | 6.0 | 13.0 | 0.00 | 0.00 | 0.00 | 62 | 1014.7 |
| 20260508173803 | 73 | 71 | 7.0 | 10.0 | 0.00 | 0.00 | 0.00 | 62 | 1014.8 |
| 20260508173301 | 72 | 219 | 3.0 | 13.0 | 0.00 | 0.00 | 0.00 | 63 | 1014.5 |
| 20260508172756 | 72 | 134 | 5.0 | 11.0 | 0.00 | 0.00 | 0.00 | 62 | 1014.8 |
| 20260508172254 | 72 | 86 | 3.0 | 6.0 | 0.00 | 0.00 | 0.00 | 60 | 1014.6 |
| 20260508171750 | 73 | 5 | 4.0 | 10.0 | 0.00 | 0.00 | 0.00 | 58 | 1014.9 |
| 20260508171246 | 73 | 97 | 3.0 | 6.0 | 0.00 | 0.00 | 0.00 | 56 | 1015.1 |
| 20260508170743 | 73 | 125 | 1.0 | 3.0 | 0.00 | 0.00 | 0.00 | 58 | 1014.7 |
| 20260508170242 | 73 | 76 | 8.0 | 10.0 | 0.00 | 0.00 | 0.00 | 58 | 1014.7 |
| 20260508165738 | 73 | 143 | 3.0 | 11.0 | 0.00 | 0.00 | 0.00 | 58 | 1014.7 |
| 20260508165235 | 73 | 144 | 4.0 | 6.0 | 0.00 | 0.00 | 0.00 | 57 | 1014.8 |
| 20260508164731 | 73 | 136 | 5.0 | 9.0 | 0.00 | 0.00 | 0.00 | 59 | 1015.0 |
| 20260508164228 | 73 | 220 | 5.0 | 10.0 | 0.00 | 0.00 | 0.00 | 60 | 1014.9 |
| 20260508163726 | 73 | 24 | 1.0 | 5.0 | 0.00 | 0.00 | 0.00 | 60 | 1015.1 |
| 20260508163223 | 73 | 142 | 4.0 | 9.0 | 0.00 | 0.00 | 0.00 | 58 | 1015.3 |
| 20260508162719 | 73 | 163 | 3.0 | 5.0 | 0.00 | 0.00 | 0.00 | 59 | 1015.3 |
| 20260508162216 | 73 | 145 | 3.0 | 5.0 | 0.00 | 0.00 | 0.00 | 58 | 1015.3 |
| 20260508161713 | 73 | 43 | 3.0 | 10.0 | 0.00 | 0.00 | 0.00 | 55 | 1015.4 |
| 20260508161211 | 73 | 78 | 3.0 | 9.0 | 0.00 | 0.00 | 0.00 | 56 | 1015.5 |
| 20260508160709 | 73 | 181 | 1.0 | 5.0 | 0.00 | 0.00 | 0.00 | 54 | 1015.6 |
| 20260508160206 | 73 | 156 | 6.0 | 10.0 | 0.00 | 0.00 | 0.00 | 58 | 1015.7 |
| 20260508155703 | 73 | 177 | 0.0 | 2.0 | 0.00 | 0.00 | 0.00 | 57 | 1015.7 |
| 20260508155200 | 72 | 141 | 1.0 | 2.0 | 0.00 | 0.00 | 0.00 | 58 | 1015.8 |
| 20260508154657 | 72 | 110 | 2.0 | 2.0 | 0.00 | 0.00 | 0.00 | 58 | 1016.0 |
| 20260508154154 | 71 | 130 | 3.0 | 7.0 | 0.00 | 0.00 | 0.00 | 59 | 1015.9 |
| 20260508153650 | 72 | 57 | 4.0 | 7.0 | 0.00 | 0.00 | 0.00 | 56 | 1016.0 |
| 20260508153147 | 72 | 65 | 3.0 | 13.0 | 0.00 | 0.00 | 0.00 | 60 | 1016.0 |
| 20260508152644 | 72 | 116 | 4.0 | 10.0 | 0.00 | 0.00 | 0.00 | 60 | 1015.9 |
| 20260508152139 | 71 | 142 | 1.0 | 3.0 | 0.00 | 0.00 | 0.00 | 62 | 1015.9 |
| 20260508151636 | 71 | 36 | 9.0 | 10.0 | 0.00 | 0.00 | 0.00 | 60 | 1015.9 |
| 20260508151133 | 70 | 166 | 1.0 | 2.0 | 0.00 | 0.00 | 0.00 | 62 | 1015.9 |
| 20260508150630 | 70 | 6 | 4.0 | 5.0 | 0.00 | 0.00 | 0.00 | 62 | 1016.1 |
| 20260508150127 | 70 | 142 | 1.0 | 6.0 | 0.00 | 0.00 | 0.00 | 58 | 1015.8 |
| 20260508145622 | 70 | 100 | 2.0 | 8.0 | 0.00 | 0.00 | 0.00 | 63 | 1015.8 |
| 20260508145119 | 69 | 122 | 1.0 | 9.0 | 0.00 | 0.00 | 0.00 | 63 | 1015.6 |
| 20260508144617 | 69 | 31 | 9.0 | 11.0 | 0.00 | 0.00 | 0.00 | 63 | 1015.9 |
| 20260508144114 | 68 | 33 | 2.0 | 7.0 | 0.00 | 0.00 | 0.00 | 65 | 1015.7 |
| 20260508143612 | 68 | 47 | 5.0 | 10.0 | 0.00 | 0.00 | 0.00 | 62 | 1015.9 |
| 20260508143108 | 68 | 27 | 3.0 | 7.0 | 0.00 | 0.00 | 0.00 | 64 | 1015.7 |
| 20260508142605 | 67 | 142 | 2.0 | 5.0 | 0.00 | 0.00 | 0.00 | 68 | 1015.5 |
| 20260508142102 | 67 | 37 | 4.0 | 5.0 | 0.00 | 0.00 | 0.00 | 70 | 1015.7 |
| 20260508141558 | 67 | 11 | 1.0 | 9.0 | 0.00 | 0.00 | 0.00 | 69 | 1015.6 |
| 20260508141056 | 66 | 26 | 5.0 | 7.0 | 0.00 | 0.00 | 0.00 | 69 | 1015.6 |
| 20260508140553 | 66 | 55 | 1.0 | 5.0 | 0.00 | 0.00 | 0.00 | 72 | 1015.8 |
| 20260508140049 | 66 | 16 | 1.0 | 5.0 | 0.00 | 0.00 | 0.00 | 72 | 1015.8 |
| 20260508135545 | 66 | 44 | 3.0 | 5.0 | 0.00 | 0.00 | 0.00 | 74 | 1015.5 |
| 20260508135041 | 66 | 252 | 1.0 | 5.0 | 0.00 | 0.00 | 0.00 | 74 | 1015.4 |
| 20260508134538 | 65 | 10 | 2.0 | 7.0 | 0.00 | 0.00 | 0.00 | 74 | 1015.5 |
| 20260508134035 | 65 | 301 | 2.0 | 11.0 | 0.00 | 0.00 | 0.00 | 75 | 1015.3 |
| 20260508133532 | 65 | 52 | 7.0 | 10.0 | 0.00 | 0.00 | 0.00 | 78 | 1015.2 |
| 20260508133029 | 64 | 57 | 5.0 | 7.0 | 0.00 | 0.00 | 0.00 | 81 | 1015.3 |
| 20260508132527 | 63 | 135 | 1.0 | 2.0 | 0.00 | 0.00 | 0.00 | 83 | 1015.1 |
| 20260508132023 | 62 | 52 | 3.0 | 5.0 | 0.00 | 0.00 | 0.00 | 85 | 1015.1 |
| 20260508131513 | 61 | 34 | 3.0 | 3.0 | 0.00 | 0.00 | 0.00 | 85 | 1014.9 |
| 20260508131010 | 61 | 114 | 0.0 | 1.0 | 0.00 | 0.00 | 0.00 | 86 | 1015.0 |
| 20260508130508 | 61 | 66 | 3.0 | 9.0 | 0.00 | 0.00 | 0.00 | 85 | 1015.0 |
| 20260508130003 | 61 | 11 | 3.0 | 8.0 | 0.00 | 0.00 | 0.00 | 89 | 1015.1 |
| 20260508125459 | 61 | 5 | 4.0 | 6.0 | 0.00 | 0.00 | 0.00 | 90 | 1015.0 |
| 20260508124957 | 61 | 115 | 1.0 | 5.0 | 0.00 | 0.00 | 0.00 | 90 | 1014.9 |
| 20260508124454 | 60 | 72 | 2.0 | 7.0 | 0.00 | 0.00 | 0.00 | 91 | 1015.0 |
| 20260508123952 | 60 | 59 | 4.0 | 6.0 | 0.00 | 0.00 | 0.00 | 91 | 1015.2 |
| 20260508123451 | 60 | 346 | 0.0 | 6.0 | 0.00 | 0.00 | 0.00 | 91 | 1014.8 |
| 20260508122946 | 60 | 107 | 2.0 | 6.0 | 0.00 | 0.00 | 0.00 | 91 | 1014.6 |
| 20260508122444 | 60 | 54 | 5.0 | 8.0 | 0.00 | 0.00 | 0.00 | 92 | 1014.8 |
| 20260508121940 | 60 | 52 | 1.0 | 5.0 | 0.00 | 0.00 | 0.00 | 91 | 1014.4 |
| 20260508121439 | 60 | 56 | 4.0 | 11.0 | 0.00 | 0.00 | 0.00 | 93 | 1014.5 |
| 20260508120936 | 60 | 47 | 4.0 | 6.0 | 0.00 | 0.00 | 0.00 | 93 | 1014.7 |
| 20260508120433 | 59 | 254 | 0.0 | 6.0 | 0.00 | 0.00 | 0.00 | 93 | 1014.4 |
| 20260508115931 | 59 | 50 | 5.0 | 6.0 | 0.00 | 0.00 | 0.00 | 94 | 1014.2 |
| 20260508115429 | 59 | 105 | 1.0 | 2.0 | 0.00 | 0.00 | 0.00 | 94 | 1014.3 |
| 20260508114925 | 59 | 65 | 1.0 | 2.0 | 0.00 | 0.00 | 0.00 | 95 | 1014.2 |
| 20260508114422 | 59 | 74 | 1.0 | 5.0 | 0.00 | 0.00 | 0.00 | 95 | 1013.8 |
| 20260508113919 | 59 | 88 | 1.0 | 6.0 | 0.00 | 0.00 | 0.00 | 95 | 1014.1 |
| 20260508113417 | 59 | 10 | 2.0 | 6.0 | 0.00 | 0.00 | 0.00 | 95 | 1014.1 |
| 20260508112914 | 58 | 34 | 2.0 | 5.0 | 0.00 | 0.00 | 0.00 | 95 | 1014.1 |
| 20260508112410 | 58 | 87 | 0.0 | 6.0 | 0.00 | 0.00 | 0.00 | 95 | 1013.9 |
| 20260508111907 | 58 | 86 | 1.0 | 2.0 | 0.00 | 0.00 | 0.00 | 95 | 1013.9 |
| 20260508111404 | 58 | 54 | 0.0 | 2.0 | 0.00 | 0.00 | 0.00 | 95 | 1013.7 |
| 20260508110901 | 58 | 34 | 3.0 | 5.0 | 0.00 | 0.00 | 0.00 | 95 | 1013.6 |
| 20260508110359 | 58 | 312 | 0.0 | 5.0 | 0.00 | 0.00 | 0.00 | 94 | 1013.3 |
| 20260508105858 | 58 | 52 | 1.0 | 2.0 | 0.00 | 0.00 | 0.00 | 94 | 1013.3 |
| 20260508105355 | 58 | 106 | 1.0 | 5.0 | 0.00 | 0.00 | 0.00 | 94 | 1013.2 |
| 20260508104852 | 59 | 12 | 1.0 | 2.0 | 0.00 | 0.00 | 0.00 | 94 | 1013.1 |
| 20260508104349 | 59 | 335 | 2.0 | 6.0 | 0.00 | 0.00 | 0.00 | 94 | 1013.0 |
| 20260508103846 | 59 | 48 | 1.0 | 2.0 | 0.00 | 0.00 | 0.00 | 94 | 1013.0 |
| 20260508103343 | 59 | 38 | 2.0 | 6.0 | 0.00 | 0.00 | 0.00 | 94 | 1012.8 |
| 20260508102841 | 59 | 81 | 2.0 | 2.0 | 0.00 | 0.00 | 0.00 | 94 | 1012.7 |
| 20260508102339 | 59 | 333 | 1.0 | 7.0 | 0.00 | 0.00 | 0.00 | 94 | 1012.7 |
| 20260508101836 | 59 | 44 | 1.0 | 3.0 | 0.00 | 0.00 | 0.00 | 93 | 1012.5 |
| 20260508101333 | 59 | 27 | 3.0 | 6.0 | 0.00 | 0.00 | 0.00 | 93 | 1012.2 |
| 20260508100830 | 60 | 324 | 2.0 | 7.0 | 0.00 | 0.00 | 0.00 | 93 | 1012.1 |
| 20260508100329 | 60 | 329 | 1.0 | 6.0 | 0.00 | 0.00 | 0.00 | 93 | 1012.3 |
| 20260508095824 | 60 | 334 | 3.0 | 3.0 | 0.00 | 0.00 | 0.00 | 93 | 1012.2 |
| 20260508095322 | 60 | 337 | 1.0 | 2.0 | 0.00 | 0.00 | 0.00 | 93 | 1012.2 |
| 20260508094819 | 60 | 338 | 1.0 | 2.0 | 0.00 | 0.00 | 0.00 | 93 | 1012.1 |
| 20260508094316 | 60 | 68 | 5.0 | 7.0 | 0.00 | 0.00 | 0.00 | 93 | 1011.9 |
| 20260508093813 | 60 | 27 | 2.0 | 5.0 | 0.00 | 0.00 | 0.00 | 93 | 1011.8 |
| 20260508093310 | 61 | 17 | 4.0 | 5.0 | 0.00 | 0.00 | 0.00 | 93 | 1011.9 |
| 20260508092808 | 61 | 19 | 2.0 | 5.0 | 0.00 | 0.00 | 0.00 | 93 | 1011.8 |
| 20260508092312 | 61 | 14 | 2.0 | 3.0 | 0.00 | 0.00 | 0.00 | 93 | 1012.0 |
| 20260508091803 | 61 | 319 | 1.0 | 2.0 | 0.00 | 0.00 | 0.00 | 93 | 1012.0 |
| 20260508091300 | 61 | 17 | 0.0 | 3.0 | 0.00 | 0.00 | 0.00 | 93 | 1011.9 |
| 20260508090757 | 61 | 50 | 2.0 | 5.0 | 0.00 | 0.00 | 0.00 | 93 | 1012.0 |
| 20260508090256 | 61 | 36 | 2.0 | 2.0 | 0.00 | 0.00 | 0.00 | 93 | 1011.9 |
| 20260508085751 | 61 | 104 | 1.0 | 1.0 | 0.00 | 0.00 | 0.00 | 93 | 1011.9 |
| 20260508085248 | 62 | 281 | 0.0 | 3.0 | 0.00 | 0.00 | 0.00 | 93 | 1012.2 |
| 20260508084744 | 62 | 44 | 2.0 | 2.0 | 0.00 | 0.00 | 0.00 | 93 | 1012.0 |
| 20260508084242 | 62 | 57 | 5.0 | 8.0 | 0.00 | 0.00 | 0.00 | 93 | 1012.0 |
| 20260508083739 | 62 | 1 | 3.0 | 5.0 | 0.00 | 0.00 | 0.00 | 93 | 1012.1 |
| 20260508083236 | 62 | 23 | 1.0 | 2.0 | 0.00 | 0.00 | 0.00 | 92 | 1012.0 |
| 20260508082731 | 62 | 57 | 3.0 | 3.0 | 0.00 | 0.00 | 0.00 | 92 | 1011.9 |
| 20260508082229 | 62 | 347 | 0.0 | 2.0 | 0.00 | 0.00 | 0.00 | 92 | 1011.9 |
| 20260508081726 | 62 | 350 | 1.0 | 3.0 | 0.00 | 0.00 | 0.00 | 92 | 1011.9 |
| 20260508081222 | 62 | 249 | 1.0 | 2.0 | 0.00 | 0.00 | 0.00 | 92 | 1012.0 |
| 20260508080720 | 62 | 51 | 0.0 | 5.0 | 0.00 | 0.00 | 0.00 | 92 | 1011.9 |
| 20260508080218 | 62 | 2 | 1.0 | 2.0 | 0.00 | 0.00 | 0.00 | 93 | 1012.1 |
| 20260508075714 | 63 | 80 | 1.0 | 7.0 | 0.00 | 0.00 | 0.00 | 93 | 1011.9 |
| 20260508075211 | 63 | 58 | 2.0 | 3.0 | 0.00 | 0.00 | 0.00 | 93 | 1011.8 |
| 20260508074709 | 63 | 30 | 1.0 | 2.0 | 0.00 | 0.00 | 0.00 | 93 | 1011.9 |
| 20260508074206 | 63 | 61 | 0.0 | 1.0 | 0.00 | 0.00 | 0.00 | 93 | 1011.8 |
| 20260508073702 | 63 | 269 | 1.0 | 1.0 | 0.00 | 0.00 | 0.00 | 93 | 1011.8 |
| 20260508073201 | 63 | 314 | 0.0 | 2.0 | 0.00 | 0.00 | 0.00 | 93 | 1011.7 |
| 20260508072656 | 63 | 89 | 2.0 | 6.0 | 0.00 | 0.00 | 0.00 | 93 | 1011.6 |
| 20260508072153 | 64 | 352 | 3.0 | 6.0 | 0.00 | 0.00 | 0.00 | 93 | 1011.6 |
| 20260508071651 | 64 | 31 | 1.0 | 3.0 | 0.00 | 0.00 | 0.00 | 93 | 1011.6 |
| 20260508071149 | 64 | 28 | 1.0 | 7.0 | 0.00 | 0.00 | 0.00 | 94 | 1011.6 |
| 20260508070646 | 64 | 84 | 4.0 | 5.0 | 0.00 | 0.00 | 0.00 | 94 | 1011.7 |
| 20260508070145 | 64 | 358 | 1.0 | 6.0 | 0.00 | 0.00 | 0.00 | 94 | 1011.5 |
| 20260508065641 | 64 | 95 | 2.0 | 6.0 | 0.00 | 0.00 | 0.00 | 95 | 1011.3 |
| 20260508065139 | 65 | 62 | 1.0 | 9.0 | 0.00 | 0.00 | 0.00 | 95 | 1011.3 |
| 20260508064637 | 65 | 61 | 2.0 | 7.0 | 0.00 | 0.00 | 0.00 | 96 | 1011.4 |
| 20260508064135 | 66 | 27 | 3.0 | 10.0 | 0.00 | 0.00 | 0.00 | 96 | 1011.4 |
| 20260508063632 | 66 | 340 | 4.0 | 7.0 | 0.00 | 0.00 | 0.00 | 97 | 1011.3 |
| 20260508063130 | 66 | 25 | 1.0 | 9.0 | 0.00 | 0.00 | 0.00 | 97 | 1011.4 |
| 20260508062627 | 67 | 52 | 2.0 | 3.0 | 0.00 | 0.00 | 0.00 | 98 | 1011.4 |
| 20260508062123 | 67 | 45 | 2.0 | 9.0 | 0.00 | 0.00 | 0.00 | 98 | 1011.3 |
| 20260508061621 | 67 | 102 | 0.0 | 3.0 | 0.00 | 0.00 | 0.00 | 98 | 1011.1 |
| 20260508061118 | 67 | 199 | 0.0 | 2.0 | 0.00 | 0.00 | 0.00 | 98 | 1011.1 |
| 20260508060615 | 68 | 208 | 0.0 | 0.0 | 0.00 | 0.00 | 0.00 | 98 | 1010.9 |
| 20260508060112 | 68 | 187 | 0.0 | 2.0 | 0.00 | 0.00 | 0.00 | 98 | 1010.9 |
| 20260508055608 | 68 | 99 | 0.0 | 3.0 | 0.00 | 0.00 | 0.00 | 98 | 1011.0 |
| 20260508055105 | 68 | 191 | 0.0 | 0.0 | 0.00 | 0.00 | 0.00 | 98 | 1010.9 |
| 20260508054601 | 68 | 218 | 0.0 | 0.0 | 0.00 | 0.00 | 0.00 | 98 | 1010.9 |
| 20260508054059 | 69 | 238 | 0.0 | 2.0 | 0.00 | 0.00 | 0.00 | 98 | 1010.6 |
| 20260508053555 | 69 | 230 | 0.0 | 1.0 | 0.00 | 0.00 | 0.00 | 98 | 1010.9 |
| 20260508053053 | 69 | 162 | 1.0 | 1.0 | 0.00 | 0.00 | 0.00 | 98 | 1010.9 |
| 20260508052551 | 69 | 305 | 0.0 | 2.0 | 0.00 | 0.00 | 0.00 | 98 | 1010.8 |
| 20260508052047 | 69 | 114 | 0.0 | 0.0 | 0.00 | 0.00 | 0.00 | 98 | 1010.9 |
| 20260508051543 | 69 | 295 | 0.0 | 2.0 | 0.00 | 0.00 | 0.00 | 98 | 1010.8 |
| 20260508051039 | 69 | 159 | 0.0 | 0.0 | 0.00 | 0.00 | 0.00 | 98 | 1010.5 |
| 20260508050535 | 69 | 328 | 1.0 | 2.0 | 0.00 | 0.00 | 0.00 | 98 | 1010.7 |
| 20260508050033 | 69 | 213 | 0.0 | 0.0 | 0.00 | 0.00 | 0.00 | 98 | 1010.6 |
| 20260508045529 | 69 | 219 | 0.0 | 0.0 | 0.00 | 0.00 | 0.00 | 98 | 1010.5 |
| 20260508045027 | 69 | 40 | 0.0 | 1.0 | 0.00 | 0.00 | 0.00 | 98 | 1010.5 |
| 20260508044524 | 69 | 218 | 0.0 | 0.0 | 0.00 | 0.00 | 0.00 | 98 | 1010.3 |
| 20260508044020 | 69 | 215 | 0.0 | 0.0 | 0.00 | 0.00 | 0.00 | 98 | 1010.4 |
| 20260508043516 | 69 | 227 | 1.0 | 2.0 | 0.00 | 0.00 | 0.00 | 98 | 1010.4 |
| 20260508043014 | 69 | 217 | 0.0 | 0.0 | 0.00 | 0.00 | 0.00 | 98 | 1010.3 |
| 20260508042510 | 69 | 218 | 0.0 | 2.0 | 0.00 | 0.00 | 0.00 | 98 | 1010.2 |
| 20260508042008 | 69 | 212 | 0.0 | 0.0 | 0.00 | 0.00 | 0.00 | 98 | 1010.2 |
| 20260508041504 | 70 | 215 | 0.0 | 0.0 | 0.00 | 0.00 | 0.00 | 98 | 1010.0 |
| 20260508041001 | 70 | 174 | 1.0 | 2.0 | 0.00 | 0.00 | 0.00 | 98 | 1010.0 |
| 20260508040458 | 70 | 236 | 0.0 | 2.0 | 0.00 | 0.00 | 0.00 | 98 | 1010.0 |
| 20260508035956 | 70 | 230 | 0.0 | 0.0 | 0.00 | 0.30 | 0.30 | 98 | 1009.9 |
| 20260508035452 | 70 | 234 | 1.0 | 2.0 | 0.00 | 0.30 | 0.30 | 97 | 1010.1 |
| 20260508034949 | 70 | 210 | 0.0 | 1.0 | 0.00 | 0.30 | 0.30 | 97 | 1009.8 |
| 20260508034446 | 70 | 224 | 0.0 | 0.0 | 0.00 | 0.30 | 0.30 | 97 | 1010.0 |
| 20260508033943 | 70 | 236 | 0.0 | 2.0 | 0.00 | 0.30 | 0.30 | 97 | 1009.9 |
| 20260508033441 | 70 | 217 | 0.0 | 0.0 | 0.00 | 0.30 | 0.30 | 97 | 1009.9 |
| 20260508032938 | 70 | 176 | 0.0 | 1.0 | 0.00 | 0.30 | 0.30 | 97 | 1009.9 |
| 20260508032436 | 70 | 225 | 0.0 | 0.0 | 0.00 | 0.30 | 0.30 | 97 | 1010.0 |
| 20260508031932 | 70 | 250 | 0.0 | 2.0 | 0.00 | 0.30 | 0.30 | 97 | 1009.7 |
| 20260508031430 | 70 | 214 | 0.0 | 0.0 | 0.00 | 0.30 | 0.30 | 97 | 1009.6 |
| 20260508030925 | 70 | 269 | 0.0 | 0.0 | 0.00 | 0.30 | 0.30 | 97 | 1009.6 |
| 20260508030423 | 70 | 125 | 0.0 | 0.0 | 0.00 | 0.30 | 0.30 | 97 | 1009.8 |
| 20260508025920 | 70 | 212 | 0.0 | 0.0 | 0.00 | 0.30 | 0.30 | 97 | 1009.9 |
| 20260508025416 | 70 | 128 | 0.0 | 0.0 | 0.00 | 0.30 | 0.30 | 97 | 1009.8 |
| 20260508024913 | 70 | 226 | 0.0 | 0.0 | 0.00 | 0.30 | 0.30 | 97 | 1009.5 |
| 20260508024410 | 70 | 101 | 1.0 | 1.0 | 0.00 | 0.30 | 0.30 | 97 | 1009.5 |
| 20260508023906 | 70 | 253 | 2.0 | 2.0 | 0.00 | 0.30 | 0.30 | 97 | 1009.6 |
| 20260508023403 | 70 | 190 | 0.0 | 0.0 | 0.00 | 0.30 | 0.30 | 97 | 1009.4 |
| 20260508022900 | 70 | 205 | 0.0 | 0.0 | 0.00 | 0.30 | 0.30 | 97 | 1009.4 |
| 20260508022355 | 70 | 207 | 0.0 | 0.0 | 0.00 | 0.30 | 0.30 | 97 | 1009.4 |
| 20260508021853 | 70 | 110 | 0.0 | 3.0 | 0.00 | 0.30 | 0.30 | 97 | 1009.4 |
| 20260508021349 | 71 | 209 | 0.0 | 0.0 | 0.00 | 0.30 | 0.30 | 97 | 1009.2 |
| 20260508020845 | 71 | 165 | 0.0 | 2.0 | 0.00 | 0.30 | 0.30 | 97 | 1009.2 |
| 20260508020343 | 71 | 228 | 0.0 | 2.0 | 0.00 | 0.30 | 0.30 | 97 | 1009.2 |
| 20260508015840 | 71 | 346 | 1.0 | 3.0 | 0.00 | 0.30 | 0.30 | 97 | 1009.1 |
| 20260508015337 | 71 | 213 | 0.0 | 0.0 | 0.00 | 0.30 | 0.30 | 97 | 1009.0 |
| 20260508014834 | 71 | 323 | 2.0 | 3.0 | 0.00 | 0.30 | 0.30 | 97 | 1009.0 |
| 20260508014331 | 71 | 211 | 0.0 | 0.0 | 0.00 | 0.30 | 0.30 | 97 | 1008.7 |
| 20260508013832 | 71 | 225 | 0.0 | 1.0 | 0.00 | 0.30 | 0.30 | 97 | 1009.0 |
| 20260508013328 | 71 | 134 | 1.0 | 2.0 | 0.00 | 0.30 | 0.30 | 96 | 1008.8 |
| 20260508012826 | 71 | 217 | 0.0 | 0.0 | 0.00 | 0.30 | 0.30 | 96 | 1008.7 |
| 20260508012323 | 71 | 156 | 0.0 | 0.0 | 0.00 | 0.30 | 0.30 | 96 | 1008.5 |
| 20260508011821 | 71 | 215 | 0.0 | 0.0 | 0.00 | 0.30 | 0.30 | 96 | 1008.7 |
| 20260508011318 | 71 | 231 | 0.0 | 2.0 | 0.00 | 0.30 | 0.30 | 96 | 1008.6 |
| 20260508010815 | 71 | 251 | 2.0 | 3.0 | 0.00 | 0.30 | 0.30 | 96 | 1008.4 |
| 20260508010313 | 71 | 270 | 0.0 | 2.0 | 0.00 | 0.30 | 0.30 | 96 | 1008.2 |
| 20260508005809 | 71 | 203 | 1.0 | 3.0 | 0.00 | 0.30 | 0.30 | 96 | 1008.2 |
| 20260508005306 | 72 | 262 | 2.0 | 3.0 | 0.00 | 0.30 | 0.30 | 96 | 1008.3 |
| 20260508004802 | 72 | 220 | 0.0 | 1.0 | 0.00 | 0.30 | 0.30 | 96 | 1008.1 |
| 20260508004259 | 72 | 187 | 0.0 | 3.0 | 0.00 | 0.30 | 0.30 | 96 | 1008.3 |
| 20260508003755 | 72 | 222 | 0.0 | 2.0 | 0.00 | 0.30 | 0.30 | 96 | 1008.1 |
| 20260508003253 | 72 | 255 | 1.0 | 2.0 | 0.00 | 0.30 | 0.30 | 96 | 1007.9 |
| 20260508002749 | 72 | 199 | 2.0 | 3.0 | 0.00 | 0.30 | 0.30 | 97 | 1007.9 |
| 20260508002246 | 72 | 79 | 0.0 | 2.0 | 0.00 | 0.30 | 0.30 | 97 | 1008.1 |
| 20260508001742 | 72 | 131 | 1.0 | 2.0 | 0.00 | 0.30 | 0.30 | 96 | 1007.8 |
| 20260508001238 | 72 | 201 | 5.0 | 7.0 | 0.00 | 0.30 | 0.30 | 97 | 1008.0 |
| 20260508000734 | 72 | 181 | 2.0 | 3.0 | 0.00 | 0.30 | 0.30 | 96 | 1007.9 |
| 20260508000234 | 72 | 279 | 1.0 | 3.0 | 0.00 | 0.30 | 0.30 | 96 | 1008.0 |
| 20260507235728 | 72 | 238 | 1.0 | 2.0 | 0.00 | 0.30 | 0.30 | 96 | 1007.9 |
| 20260507235225 | 72 | 199 | 0.0 | 1.0 | 0.00 | 0.30 | 0.30 | 96 | 1007.8 |
| 20260507234722 | 73 | 52 | 2.0 | 3.0 | 0.00 | 0.30 | 0.30 | 96 | 1008.1 |
| 20260507234219 | 73 | 205 | 2.0 | 2.0 | 0.00 | 0.30 | 0.30 | 96 | 1008.0 |
| 20260507233715 | 73 | 293 | 2.0 | 2.0 | 0.00 | 0.30 | 0.30 | 96 | 1008.1 |
| 20260507233214 | 73 | 144 | 1.0 | 6.0 | 0.00 | 0.30 | 0.30 | 96 | 1007.8 |
| 20260507232710 | 73 | 125 | 2.0 | 3.0 | 0.00 | 0.30 | 0.30 | 96 | 1007.8 |
| 20260507232208 | 73 | 5 | 4.0 | 7.0 | 0.00 | 0.30 | 0.30 | 96 | 1007.9 |
| 20260507231704 | 73 | 203 | 0.0 | 3.0 | 0.00 | 0.30 | 0.30 | 96 | 1007.9 |
| 20260507231201 | 73 | 163 | 0.0 | 1.0 | 0.00 | 0.30 | 0.30 | 96 | 1007.9 |
| 20260507230658 | 73 | 228 | 0.0 | 3.0 | 0.00 | 0.30 | 0.30 | 96 | 1007.9 |
| 20260507230155 | 73 | 251 | 1.0 | 3.0 | 0.00 | 0.30 | 0.30 | 96 | 1007.7 |
| 20260507225654 | 73 | 218 | 0.0 | 1.0 | 0.00 | 0.30 | 0.30 | 96 | 1007.8 |
| 20260507225152 | 73 | 201 | 0.0 | 2.0 | 0.00 | 0.30 | 0.30 | 96 | 1007.8 |
| 20260507224647 | 73 | 224 | 0.0 | 1.0 | 0.00 | 0.30 | 0.30 | 96 | 1007.7 |
| 20260507224144 | 73 | 16 | 2.0 | 2.0 | 0.00 | 0.30 | 0.30 | 96 | 1007.7 |
| 20260507223640 | 73 | 216 | 0.0 | 1.0 | 0.00 | 0.30 | 0.30 | 96 | 1007.5 |
| 20260507223137 | 73 | 245 | 1.0 | 2.0 | 0.00 | 0.30 | 0.30 | 96 | 1007.8 |
| 20260507222634 | 73 | 174 | 3.0 | 5.0 | 0.00 | 0.30 | 0.30 | 96 | 1007.6 |
| 20260507222130 | 73 | 348 | 3.0 | 21.0 | 0.00 | 0.30 | 0.30 | 96 | 1007.6 |
| 20260507221626 | 73 | 264 | 4.0 | 7.0 | 0.00 | 0.30 | 0.30 | 96 | 1007.7 |
| 20260507221123 | 73 | 267 | 0.0 | 1.0 | 0.00 | 0.30 | 0.30 | 96 | 1007.5 |
| 20260507220620 | 73 | 273 | 1.0 | 6.0 | 0.00 | 0.30 | 0.30 | 96 | 1007.5 |
| 20260507220118 | 73 | 225 | 0.0 | 6.0 | 0.00 | 0.30 | 0.30 | 96 | 1007.5 |
| 20260507215614 | 73 | 253 | 1.0 | 5.0 | 0.00 | 0.30 | 0.30 | 96 | 1007.5 |
| 20260507215112 | 73 | 294 | 1.0 | 3.0 | 0.00 | 0.30 | 0.30 | 96 | 1007.7 |
| 20260507214609 | 73 | 196 | 2.0 | 2.0 | 0.00 | 0.30 | 0.30 | 95 | 1007.6 |
| 20260507214105 | 73 | 252 | 1.0 | 5.0 | 0.00 | 0.30 | 0.30 | 95 | 1007.7 |
| 20260507213601 | 72 | 257 | 2.0 | 6.0 | 0.00 | 0.30 | 0.30 | 95 | 1007.8 |
| 20260507213058 | 72 | 208 | 2.0 | 2.0 | 0.00 | 0.30 | 0.30 | 95 | 1007.8 |
| 20260507212554 | 72 | 246 | 0.0 | 2.0 | 0.00 | 0.30 | 0.30 | 95 | 1007.8 |
| 20260507212051 | 72 | 207 | 1.0 | 3.0 | 0.00 | 0.30 | 0.30 | 95 | 1007.8 |
| 20260507211548 | 72 | 269 | 1.0 | 2.0 | 0.00 | 0.30 | 0.30 | 94 | 1007.8 |
| 20260507211044 | 72 | 259 | 1.0 | 2.0 | 0.00 | 0.30 | 0.30 | 94 | 1008.1 |
| 20260507210541 | 71 | 315 | 2.0 | 3.0 | 0.00 | 0.30 | 0.30 | 94 | 1007.9 |
| 20260507210038 | 71 | 255 | 0.0 | 3.0 | 0.00 | 0.30 | 0.30 | 94 | 1008.1 |
| 20260507205535 | 71 | 170 | 0.0 | 3.0 | 0.00 | 0.30 | 0.30 | 93 | 1007.9 |
| 20260507205031 | 71 | 283 | 3.0 | 3.0 | 0.00 | 0.30 | 0.30 | 93 | 1008.2 |
| 20260507204527 | 71 | 333 | 0.0 | 3.0 | 0.00 | 0.30 | 0.30 | 93 | 1008.3 |
| 20260507204025 | 71 | 254 | 1.0 | 2.0 | 0.00 | 0.30 | 0.30 | 92 | 1008.2 |
| 20260507203523 | 71 | 260 | 1.0 | 3.0 | 0.00 | 0.30 | 0.30 | 92 | 1008.4 |
| 20260507203020 | 71 | 151 | 1.0 | 3.0 | 0.02 | 0.30 | 0.30 | 91 | 1008.1 |
| 20260507202515 | 71 | 306 | 2.0 | 3.0 | 0.05 | 0.30 | 0.30 | 91 | 1008.6 |
| 20260507202012 | 71 | 230 | 0.0 | 2.0 | 0.07 | 0.30 | 0.30 | 90 | 1008.7 |
| 20260507201508 | 71 | 251 | 0.0 | 2.0 | 0.05 | 0.29 | 0.29 | 90 | 1008.6 |
| 20260507201004 | 71 | 235 | 0.0 | 2.0 | 0.00 | 0.29 | 0.29 | 90 | 1008.5 |
| 20260507200459 | 72 | 285 | 1.0 | 2.0 | 0.00 | 0.29 | 0.29 | 89 | 1008.4 |
| 20260507195955 | 72 | 219 | 1.0 | 2.0 | 0.00 | 0.29 | 0.29 | 89 | 1008.1 |
| 20260507195453 | 72 | 215 | 0.0 | 2.0 | 0.00 | 0.29 | 0.29 | 88 | 1008.2 |
| 20260507194950 | 72 | 201 | 1.0 | 2.0 | 0.12 | 0.29 | 0.29 | 87 | 1007.8 |
| 20260507194447 | 72 | 223 | 2.0 | 3.0 | 0.52 | 0.29 | 0.29 | 86 | 1008.2 |
| 20260507193943 | 73 | 287 | 1.0 | 3.0 | 0.59 | 0.27 | 0.27 | 85 | 1008.6 |
| 20260507193440 | 73 | 199 | 1.0 | 5.0 | 0.52 | 0.20 | 0.20 | 84 | 1008.3 |
| 20260507192937 | 73 | 244 | 1.0 | 2.0 | 0.64 | 0.17 | 0.17 | 84 | 1009.2 |
| 20260507192433 | 74 | 14 | 1.0 | 6.0 | 0.42 | 0.11 | 0.11 | 83 | 1009.1 |